| time (UTC) | temp F | wind direction | speed knots | gust knots | rain 1hr in | rain 24hr in | rain mn in | humidity % | barometer mb |
| 20260505223521 | 48 | 4 | 1.7 | 10.4 | 0.00 | 0.00 | 0.00 | 80 | 1013.2 |
| 20260505221721 | 49 | 347 | 3.5 | 13.9 | 0.00 | 0.00 | 0.00 | 79 | 1012.9 |
| 20260505220822 | 49 | 354 | 3.5 | 17.4 | 0.00 | 0.00 | 0.00 | 78 | 1012.9 |
| 20260505215922 | 49 | 326 | 3.5 | 17.4 | 0.00 | 0.00 | 0.00 | 78 | 1013.0 |
| 20260505215021 | 49 | 318 | 3.5 | 13.9 | 0.00 | 0.00 | 0.00 | 77 | 1013.0 |
| 20260505214121 | 49 | 309 | 4.3 | 13.9 | 0.00 | 0.00 | 0.00 | 78 | 1013.0 |
| 20260505212322 | 50 | 329 | 1.7 | 13.9 | 0.00 | 0.00 | 0.00 | 80 | 1012.8 |
| 20260505211421 | 50 | 359 | 3.5 | 13.9 | 0.00 | 0.00 | 0.00 | 81 | 1012.9 |
| 20260505210521 | 50 | 356 | 3.5 | 20.9 | 0.00 | 0.00 | 0.00 | 81 | 1012.9 |
| 20260505205621 | 51 | 351 | 3.5 | 20.9 | 0.00 | 0.00 | 0.00 | 81 | 1012.8 |
| 20260505204721 | 51 | 358 | 4.3 | 13.9 | 0.00 | 0.00 | 0.00 | 81 | 1012.8 |
| 20260505203822 | 51 | 5 | 4.3 | 15.6 | 0.00 | 0.00 | 0.00 | 81 | 1012.7 |
| 20260505202921 | 51 | 19 | 3.5 | 17.4 | 0.00 | 0.00 | 0.00 | 81 | 1012.6 |
| 20260505202023 | 51 | 12 | 4.3 | 17.4 | 0.00 | 0.00 | 0.00 | 82 | 1012.5 |
| 20260505201121 | 51 | 16 | 5.2 | 17.4 | 0.00 | 0.00 | 0.00 | 82 | 1012.4 |
| 20260505200222 | 51 | 23 | 3.5 | 13.9 | 0.00 | 0.00 | 0.00 | 81 | 1012.4 |
| 20260505195321 | 52 | 22 | 4.3 | 15.6 | 0.00 | 0.00 | 0.00 | 81 | 1012.3 |
| 20260505194421 | 52 | 9 | 4.3 | 19.1 | 0.00 | 0.00 | 0.00 | 81 | 1012.1 |
| 20260505192623 | 52 | 24 | 5.2 | 20.9 | 0.00 | 0.00 | 0.00 | 80 | 1012.0 |
| 20260505191721 | 52 | 14 | 5.2 | 19.1 | 0.00 | 0.00 | 0.00 | 79 | 1011.8 |
| 20260505190821 | 53 | 21 | 4.3 | 19.1 | 0.00 | 0.00 | 0.00 | 78 | 1011.8 |
| 20260505185921 | 53 | 20 | 3.5 | 19.1 | 0.00 | 0.00 | 0.00 | 77 | 1011.8 |
| 20260505185021 | 53 | 22 | 4.3 | 13.9 | 0.00 | 0.00 | 0.00 | 77 | 1011.6 |
| 20260505184122 | 54 | 21 | 3.5 | 22.6 | 0.00 | 0.00 | 0.00 | 76 | 1011.6 |
| 20260505183223 | 55 | 25 | 4.3 | 12.2 | 0.00 | 0.00 | 0.00 | 76 | 1011.5 |
| 20260505182322 | 55 | 8 | 3.5 | 19.1 | 0.00 | 0.00 | 0.00 | 75 | 1011.4 |
| 20260505181422 | 56 | 22 | 2.6 | 15.6 | 0.00 | 0.00 | 0.00 | 75 | 1011.4 |
| 20260505180522 | 56 | 339 | 2.6 | 8.7 | 0.00 | 0.00 | 0.00 | 73 | 1011.3 |
| 20260505174721 | 57 | 6 | 3.5 | 15.6 | 0.00 | 0.00 | 0.00 | 70 | 1011.2 |
| 20260505173821 | 58 | 340 | 2.6 | 17.4 | 0.00 | 0.00 | 0.00 | 69 | 1011.2 |
| 20260505172921 | 59 | 11 | 2.6 | 15.6 | 0.00 | 0.00 | 0.00 | 70 | 1011.3 |
| 20260505172021 | 59 | 348 | 3.5 | 15.6 | 0.00 | 0.00 | 0.00 | 70 | 1011.2 |
| 20260505165321 | 59 | 344 | 4.3 | 15.6 | 0.00 | 0.00 | 0.00 | 61 | 1011.2 |
| 20260505164422 | 59 | 346 | 3.5 | 15.6 | 0.00 | 0.00 | 0.00 | 61 | 1011.1 |
| 20260505163521 | 59 | 343 | 3.5 | 15.6 | 0.00 | 0.00 | 0.00 | 62 | 1011.1 |
| 20260505162621 | 60 | 321 | 3.5 | 12.2 | 0.00 | 0.00 | 0.00 | 61 | 1011.1 |
| 20260505161721 | 60 | 315 | 3.5 | 12.2 | 0.00 | 0.00 | 0.00 | 61 | 1011.1 |
| 20260505160822 | 60 | 323 | 1.7 | 13.9 | 0.00 | 0.00 | 0.00 | 60 | 1011.1 |
| 20260505153221 | 60 | 311 | 2.6 | 10.4 | 0.00 | 0.00 | 0.00 | 61 | 1011.1 |
| 20260505152322 | 59 | 314 | 3.5 | 8.7 | 0.00 | 0.00 | 0.00 | 62 | 1011.2 |
| 20260505151421 | 59 | 322 | 2.6 | 10.4 | 0.00 | 0.00 | 0.00 | 62 | 1011.2 |
| 20260505150521 | 59 | 312 | 1.7 | 10.4 | 0.00 | 0.00 | 0.00 | 62 | 1011.2 |
| 20260505140221 | 61 | 339 | 1.7 | 12.2 | 0.00 | 0.00 | 0.00 | 59 | 1011.3 |
| 20260505125021 | 62 | 317 | 1.7 | 7.0 | 0.00 | 0.00 | 0.00 | 59 | 1011.5 |
| 20260505124123 | 63 | 330 | 0.9 | 7.0 | 0.00 | 0.00 | 0.00 | 58 | 1011.5 |
| 20260505123222 | 63 | 11 | 0.9 | 10.4 | 0.00 | 0.00 | 0.00 | 59 | 1011.4 |
| 20260505122323 | 63 | 0 | 0.0 | 7.0 | 0.00 | 0.00 | 0.00 | 59 | 1011.5 |
| 20260505121422 | 60 | 0 | 0.0 | 7.0 | 0.00 | 0.00 | 0.00 | 64 | 1011.6 |
| 20260505120521 | 59 | 314 | 1.7 | 5.2 | 0.00 | 0.00 | 0.00 | 65 | 1011.6 |
| 20260505115622 | 59 | 314 | 0.9 | 8.7 | 0.00 | 0.00 | 0.00 | 66 | 1011.7 |
| 20260505114721 | 59 | 310 | 1.7 | 8.7 | 0.00 | 0.00 | 0.00 | 66 | 1011.7 |
| 20260505113822 | 60 | 322 | 0.9 | 10.4 | 0.00 | 0.00 | 0.00 | 65 | 1011.7 |
| 20260505112921 | 60 | 0 | 0.0 | 7.0 | 0.00 | 0.00 | 0.00 | 67 | 1011.7 |
| 20260505112021 | 59 | 0 | 0.0 | 3.5 | 0.00 | 0.00 | 0.00 | 66 | 1011.8 |
| 20260505110222 | 58 | 0 | 0.0 | 3.5 | 0.00 | 0.00 | 0.00 | 69 | 1012.0 |
| 20260505101721 | 58 | 0 | 0.0 | 3.5 | 0.00 | 0.00 | 0.00 | 71 | 1012.2 |
| 20260505100821 | 58 | 315 | 0.9 | 3.5 | 0.00 | 0.00 | 0.00 | 71 | 1012.2 |
| 20260505095921 | 58 | 9 | 0.9 | 7.0 | 0.00 | 0.00 | 0.00 | 71 | 1012.3 |
| 20260505095022 | 58 | 0 | 0.0 | 5.2 | 0.00 | 0.00 | 0.00 | 73 | 1012.3 |
| 20260505094121 | 57 | 0 | 0.0 | 5.2 | 0.00 | 0.00 | 0.00 | 74 | 1012.4 |
| 20260505093221 | 56 | 0 | 0.0 | 3.5 | 0.00 | 0.00 | 0.00 | 75 | 1012.4 |
| 20260505091421 | 55 | 341 | 0.9 | 7.0 | 0.00 | 0.00 | 0.00 | 78 | 1012.4 |
| 20260505090521 | 55 | 15 | 0.0 | 8.7 | 0.00 | 0.00 | 0.00 | 79 | 1012.5 |
| 20260505084721 | 54 | 0 | 0.0 | 7.0 | 0.00 | 0.00 | 0.00 | 82 | 1012.6 |
| 20260505083821 | 54 | 0 | 0.0 | 3.5 | 0.00 | 0.00 | 0.00 | 83 | 1012.6 |
| 20260505081122 | 53 | 0 | 0.0 | 5.2 | 0.00 | 0.00 | 0.00 | 86 | 1012.6 |
| 20260505080222 | 52 | 0 | 0.0 | 3.5 | 0.00 | 0.00 | 0.00 | 86 | 1012.6 |
| 20260505074421 | 52 | 0 | 0.0 | 1.7 | 0.00 | 0.00 | 0.00 | 87 | 1012.5 |
| 20260505073522 | 51 | 0 | 0.0 | 3.5 | 0.00 | 0.00 | 0.00 | 88 | 1012.5 |
| 20260505072621 | 51 | 315 | 0.0 | 7.0 | 0.00 | 0.00 | 0.00 | 87 | 1012.5 |
| 20260505071721 | 52 | 0 | 0.0 | 3.5 | 0.00 | 0.00 | 0.00 | 87 | 1012.6 |
| 20260505070821 | 52 | 0 | 0.0 | 3.5 | 0.00 | 0.00 | 0.00 | 87 | 1012.6 |
| 20260505065922 | 53 | 0 | 0.0 | 3.5 | 0.00 | 0.00 | 0.00 | 86 | 1012.7 |
| 20260505065021 | 53 | 0 | 0.0 | 5.2 | 0.00 | 0.00 | 0.00 | 86 | 1012.7 |
| 20260505064122 | 53 | 0 | 0.0 | 0.0 | 0.00 | 0.00 | 0.00 | 86 | 1012.7 |
| 20260505063221 | 53 | 0 | 0.0 | 0.0 | 0.00 | 0.00 | 0.00 | 87 | 1012.8 |
| 20260505062321 | 53 | 0 | 0.0 | 0.0 | 0.00 | 0.00 | 0.00 | 89 | 1012.7 |
| 20260505061422 | 52 | 0 | 0.0 | 0.0 | 0.00 | 0.00 | 0.00 | 89 | 1012.8 |
| 20260505060523 | 52 | 0 | 0.0 | 0.0 | 0.00 | 0.00 | 0.00 | 90 | 1012.9 |
| 20260505055621 | 51 | 0 | 0.0 | 0.0 | 0.00 | 0.00 | 0.00 | 91 | 1012.9 |
| 20260505054721 | 51 | 0 | 0.0 | 0.0 | 0.00 | 0.00 | 0.00 | 91 | 1012.8 |
| 20260505052021 | 50 | 0 | 0.0 | 0.0 | 0.00 | 0.00 | 0.00 | 91 | 1012.9 |
| 20260505051121 | 50 | 0 | 0.0 | 0.0 | 0.00 | 0.00 | 0.00 | 91 | 1012.8 |
| 20260505050221 | 50 | 0 | 0.0 | 0.0 | 0.00 | 0.00 | 0.00 | 91 | 1012.8 |
| 20260505040821 | 50 | 0 | 0.0 | 0.0 | 0.00 | 0.00 | 0.00 | 91 | 1012.7 |
| 20260505035921 | 50 | 0 | 0.0 | 0.0 | 0.00 | 0.00 | 0.00 | 91 | 1012.8 |
| 20260505035021 | 50 | 0 | 0.0 | 0.0 | 0.00 | 0.00 | 0.00 | 91 | 1012.7 |
| 20260505034121 | 50 | 0 | 0.0 | 0.0 | 0.00 | 0.00 | 0.00 | 91 | 1012.7 |
| 20260505033221 | 50 | 0 | 0.0 | 0.0 | 0.00 | 0.00 | 0.00 | 91 | 1012.7 |
| 20260505031421 | 50 | 0 | 0.0 | 0.0 | 0.00 | 0.00 | 0.00 | 91 | 1012.8 |
| 20260505025621 | 50 | 0 | 0.0 | 0.0 | 0.00 | 0.00 | 0.00 | 91 | 1012.9 |
| 20260505024721 | 50 | 0 | 0.0 | 0.0 | 0.00 | 0.00 | 0.00 | 91 | 1013.0 |
| 20260505023822 | 50 | 0 | 0.0 | 0.0 | 0.00 | 0.00 | 0.00 | 90 | 1013.0 |
| 20260505022921 | 50 | 0 | 0.0 | 0.0 | 0.00 | 0.00 | 0.00 | 90 | 1012.9 |
| 20260505022021 | 50 | 0 | 0.0 | 0.0 | 0.00 | 0.00 | 0.00 | 90 | 1012.9 |
| 20260505021121 | 50 | 0 | 0.0 | 0.0 | 0.00 | 0.00 | 0.00 | 90 | 1013.0 |
| 20260505020221 | 50 | 0 | 0.0 | 0.0 | 0.00 | 0.00 | 0.00 | 90 | 1013.0 |
| 20260505015321 | 50 | 0 | 0.0 | 1.7 | 0.00 | 0.00 | 0.00 | 90 | 1013.0 |
| 20260505012622 | 50 | 0 | 0.0 | 0.0 | 0.00 | 0.00 | 0.00 | 90 | 1013.3 |
| 20260505011721 | 50 | 0 | 0.0 | 0.0 | 0.00 | 0.00 | 0.00 | 90 | 1013.3 |
| 20260505010821 | 50 | 0 | 0.0 | 0.0 | 0.00 | 0.00 | 0.00 | 90 | 1013.3 |
| 20260505005021 | 50 | 0 | 0.0 | 0.0 | 0.00 | 0.00 | 0.00 | 90 | 1013.5 |
| 20260505004121 | 50 | 0 | 0.0 | 1.7 | 0.00 | 0.00 | 0.00 | 90 | 1013.5 |
| 20260505003221 | 50 | 0 | 0.0 | 1.7 | 0.00 | 0.00 | 0.00 | 90 | 1013.6 |
| 20260505002321 | 50 | 0 | 0.0 | 0.0 | 0.00 | 0.00 | 0.00 | 90 | 1013.7 |
| 20260505001423 | 50 | 0 | 0.0 | 0.0 | 0.00 | 0.00 | 0.00 | 90 | 1013.7 |
| 20260505000521 | 50 | 0 | 0.0 | 0.0 | 0.00 | 0.00 | 0.00 | 91 | 1013.8 |
| 20260504235622 | 50 | 0 | 0.0 | 0.0 | 0.00 | 0.00 | 0.00 | 91 | 1013.9 |
| 20260504234721 | 50 | 0 | 0.0 | 0.0 | 0.00 | 0.00 | 0.00 | 90 | 1013.8 |
| 20260504233821 | 50 | 0 | 0.0 | 0.0 | 0.00 | 0.00 | 0.00 | 90 | 1013.8 |
| 20260504232921 | 50 | 0 | 0.0 | 0.0 | 0.00 | 0.00 | 0.00 | 90 | 1013.8 |
| 20260504232021 | 50 | 0 | 0.0 | 0.0 | 0.00 | 0.00 | 0.00 | 90 | 1013.8 |
| 20260504230221 | 50 | 0 | 0.0 | 0.0 | 0.00 | 0.00 | 0.00 | 88 | 1013.7 |
| 20260504225323 | 51 | 0 | 0.0 | 1.7 | 0.00 | 0.00 | 0.00 | 88 | 1013.9 |
| 20260504224421 | 51 | 0 | 0.0 | 0.0 | 0.00 | 0.00 | 0.00 | 87 | 1014.0 |